This is the latest recevied weather packets stored in our database for station/object WX5KDM. If no packets are shown the sender has not sent any weather packets the latest 10 day(s).
| Time | Temp. | Humidity | Pressure | Rain* | Wind** | Luminosity | Snow |
|---|---|---|---|---|---|---|---|
| 1777775198 | 11.67° C | 67% | 1019.3 hPa | 0 mm | - | - | - |
| 1777774897 | 12.22° C | 67% | 1019 hPa | 0 mm | - | - | - |
| 1777774595 | 12.22° C | 67% | 1018.8 hPa | 0 mm | - | - | - |
| 1777774291 | 12.78° C | 65% | 1018.8 hPa | 0 mm | - | - | - |
| 1777773988 | 12.78° C | 64% | 1018.9 hPa | 0 mm | - | - | - |
| 1777773686 | 12.78° C | 63% | 1018.8 hPa | 0 mm | - | - | - |
| 1777773383 | 13.33° C | 62% | 1018.6 hPa | 0 mm | - | - | - |
| 1777773080 | 13.33° C | 63% | 1018.6 hPa | 0 mm | - | - | - |
| 1777772775 | 13.89° C | 59% | 1018.6 hPa | 0 mm | - | - | - |
| 1777772473 | 14.44° C | 58% | 1018.7 hPa | 0 mm | - | - | - |
| 1777772170 | 14.44° C | 57% | 1018.4 hPa | 0 mm | - | - | - |
| 1777771868 | 15° C | 56% | 1018.4 hPa | 0 mm | - | - | - |
| 1777771565 | 15° C | 53% | 1018.2 hPa | 0 mm | - | - | - |
| 1777771262 | 15° C | 53% | 1018.2 hPa | 0 mm | - | - | - |
| 1777770958 | 15.56° C | 55% | 1018.2 hPa | 0 mm | - | - | - |
| 1777770656 | 15.56° C | 51% | 1018 hPa | 0 mm | - | - | - |
| 1777770351 | 16.11° C | 52% | 1017.8 hPa | 0 mm | - | - | - |
| 1777770049 | 16.11° C | 50% | 1018 hPa | 0 mm | - | - | - |
| 1777769746 | 16.67° C | 49% | 1017.7 hPa | 0 mm | - | - | - |
| 1777769444 | 16.67° C | 49% | 1017.5 hPa | 0 mm | - | - | - |
| 1777769139 | 16.67° C | 47% | 1017.6 hPa | 0 mm | - | - | - |
| 1777768838 | 17.22° C | 47% | 1017.5 hPa | 0 mm | - | - | - |
| 1777768534 | 17.22° C | 46% | 1017.6 hPa | 0 mm | - | - | - |
| 1777768232 | 17.78° C | 46% | 1017.6 hPa | 0 mm | - | - | - |
| 1777767928 | 17.78° C | 46% | 1017.3 hPa | 0 mm | - | - | - |
* Rain latest hour (hover to see other rain measurements)
** Current wind speed in m/s (hover to see current wind gust speed)